This demonstration page uses our WeatherBlox Daily Observations layout. Learn more.

Left ArrowRight Arrow

Hourly Observations for December 11, 2019

Temp ( °F °C ) Dew Point ( °F °C ) Humidity (%) Winds ( mph kmh ) Pressure ( in mb ) Visibility ( mi km ) Precip ( " mm )
12:09 am 00:09 Cloudy with Light Rain 48 8.9 46 7.8 93 93 Calm 30.24 1024 3 5 0.00 0.00
12:15 am 00:15 Cloudy with Light Rain 48 8.9 47 8.3 96 96 Calm 30.24 1024 3 4 0.01 0.25
12:32 am 00:32 Cloudy with Light Rain 48 8.9 46 7.8 93 93 Calm 30.24 1024 3 5 0.02 0.51
12:50 am 00:50 Cloudy with Light Rain 48 9 46 8 94 94 Calm 30.24 1024 3 5 0.02 0.51
12:53 am 00:53 Cloudy with Light Rain 48 8.9 46 7.8 93 93 Calm 30.22 1024 3 5 0.02 0.51
1:00 am 01:00 Cloudy with Mist and Fog 48 8.9 47 8.3 96 96 Calm 30.24 1024 3 4 0.01 0.25
1:04 am 01:04 Cloudy with Light Rain 48 8.9 47 8.3 96 96 Calm 30.24 1024 3 4 0.01 0.25
1:09 am 01:09 Cloudy with Light Rain 48 8.9 47 8.3 96 96 Calm 30.24 1024 3 5 0.01 0.25
1:27 am 01:27 Cloudy with Mist and Fog 49 9.4 47 8.3 93 93 Calm 30.23 1024 3 5 0.01 0.25
1:38 am 01:38 Cloudy with Mist and Fog 49 9.4 47 8.3 93 93 Calm 30.23 1024 3 5 0.01 0.25
1:53 am 01:53 Cloudy with Mist and Fog 49 9.4 47 8.3 93 93 Calm 30.22 1023 3 5 0.01 0.25
2:08 am 02:08 Cloudy with Mist and Fog 49 9.4 47 8.3 93 93 Calm 30.23 1024 3 5 0.00 0.00
2:32 am 02:32 Cloudy with Light Rain 49 9.4 47 8.3 93 93 Calm 30.24 1024 3 4 0.00 0.00
2:45 am 02:45 Cloudy with Mist and Fog 49 9.4 47 8.3 93 93 Calm 30.23 1024 2 3 0.00 0.00
2:53 am 02:53 Cloudy with Mist and Fog 49 9.4 47 8.3 93 93 Calm 30.22 1023 2 3 0.00 0.00
3:00 am 03:00 Cloudy with Mist and Fog 49 9.4 47 8.3 93 93 NNE 3 6 30.24 1024 2 3 0.00 0.00
3:32 am 03:32 Cloudy with Mist and Fog 49 9.4 47 8.3 93 93 Calm 30.24 1024 3 5 0.00 0.00
3:53 am 03:53 Cloudy with Mist and Fog 49 9.4 47 8.3 93 93 Calm 30.22 1024 3 5 0.00 0.00
4:32 am 04:32 Cloudy with Mist and Fog 49 9.4 47 8.3 93 93 N 3 6 30.22 1023 3 5 0.00 0.00
4:53 am 04:53 Cloudy with Light Rain 49 9.4 47 8.3 93 93 Calm 30.21 1023 3 4 0.01 0.25
5:18 am 05:18 Cloudy with Light Rain 49 9.4 47 8.3 93 93 S 3 6 30.23 1024 2 3 0.02 0.51
5:38 am 05:38 Cloudy with Light Rain 49 9.4 47 8.3 93 93 SSW 5 7 30.24 1024 3 5 0.03 0.76
5:53 am 05:53 Cloudy with Mist and Fog 49 9.4 47 8.3 93 93 S 3 6 30.22 1024 4 6 0.03 0.76
6:53 am 06:53 Cloudy with Mist and Fog 49 9.4 47 8.3 93 93 Calm 30.22 1023 4 6 0.01 0.25
7:15 am 07:15 Cloudy with Light Rain 49 9.4 47 8.3 93 93 Calm 30.24 1024 2 3 0.00 0.00
7:26 am 07:26 Cloudy with Light Rain 49 9.4 47 8.3 93 93 Calm 30.24 1024 2 3 0.00 0.00
7:33 am 07:33 Cloudy with Light Rain 49 9.4 47 8.3 93 93 Calm 30.23 1024 3 4 0.01 0.25
7:50 am 07:50 Cloudy with Mist and Fog 48 9 48 9 100 100 Calm 30.25 1024 2 3 0.01 0.25
7:53 am 07:53 Cloudy with Mist and Fog 49 9.4 48 8.9 97 97 Calm 30.24 1024 2 3 0.01 0.25
8:49 am 08:49 Cloudy with Mist and Fog 48 9 48 9 100 100 NNE 5 7 30.26 1025 2 3 0.01 0.25
8:53 am 08:53 Cloudy with Mist and Fog 49 9.4 48 8.9 97 97 NE 3 6 30.24 1024 2 3 0.02 0.51
9:13 am 09:13 Cloudy with Mist and Fog 49 9.4 48 8.9 97 97 Calm 30.27 1025 2 3 0.00 0.00
9:42 am 09:42 Cloudy with Mist and Fog 50 10 48 8.9 93 93 Calm 30.28 1025 2 3 0.01 0.25
9:51 am 09:51 Cloudy with Mist and Fog 50 10 48 9 94 94 E 3 6 30.28 1025 2 3 0.01 0.25
9:53 am 09:53 Cloudy with Mist and Fog 50 10 48 8.9 93 93 E 3 6 30.27 1025 2 3 0.01 0.25
9:57 am 09:57 Cloudy with Mist and Fog 50 10 48 8.9 93 93 E 3 6 30.28 1025 2 3 0.00 0.00
10:12 am 10:12 Cloudy with Mist and Fog 50 10 48 8.9 93 93 Calm 30.28 1025 2 3 0.00 0.00
10:53 am 10:53 Cloudy with Mist and Fog 50 10 48 8.9 93 93 ENE 6 9 30.24 1024 2 3 0.00 0.00
10:55 am 10:55 Cloudy with Mist and Fog 50 10 48 8.9 93 93 ENE 7 11 30.26 1025 1 2 0.00 0.00
11:02 am 11:02 Cloudy with Mist and Fog 50 10 48 8.9 93 93 ENE 5 7 30.26 1025 2 3 0.00 0.00
11:11 am 11:11 Cloudy with Mist and Fog 50 10 48 8.9 93 93 E 5 7 30.25 1024 2 3 0.00 0.00
11:20 am 11:20 Cloudy with Mist and Fog 50 10 48 8.9 93 93 E 3 6 30.25 1024 2 3 0.00 0.00
11:34 am 11:34 Cloudy with Mist and Fog 50 10 49 9.4 96 96 Calm 30.25 1024 1 2 0.00 0.00
11:53 am 11:53 Cloudy with Light Rain 50 10 48 8.9 93 93 Calm 30.23 1024 1 2 0.00 0.00
12:08 pm 12:08 Cloudy with Mist and Fog 50 10 48 8.9 93 93 Calm 30.24 1024 2 3 0.01 0.25
12:22 pm 12:22 Cloudy with Light Rain 50 10 49 9.4 96 96 Calm 30.23 1024 2 2 0.02 0.51
12:39 pm 12:39 Cloudy with Light Rain 50 10 49 9.4 96 96 Calm 30.23 1024 3 5 0.04 1.02
12:48 pm 12:48 Cloudy with Light Rain 50 10 48 9 94 94 Calm 30.23 1024 3 4 0.05 1.27
12:49 pm 12:49 Cloudy with Light Rain 50 10 49 9.4 96 96 Calm 30.21 1023 3 4 0.05 1.27
12:54 pm 12:54 Cloudy with Light Rain 50 10 49 9.4 96 96 Calm 30.23 1024 3 5 0.00 0.00
1:11 pm 13:11 Cloudy with Light Rain 51 10.6 49 9.4 92 92 Calm 30.22 1023 3 5 0.01 0.25
1:29 pm 13:29 Cloudy with Light Rain 51 10.6 48 8.9 89 89 Calm 30.21 1023 5 8 0.01 0.25
1:51 pm 13:51 Cloudy with Mist and Fog 50 10 48 9 94 94 E 3 6 30.19 1022 2 3 0.02 0.51
1:53 pm 13:53 Cloudy with Mist and Fog 50 10 49 9.4 96 96 E 5 7 30.18 1022 2 3 0.02 0.51
1:57 pm 13:57 Cloudy with Mist and Fog 50 10 49 9.4 96 96 E 5 7 30.19 1022 6 10 0.00 0.00
2:19 pm 14:19 Cloudy with Mist and Fog 51 10.6 49 9.4 92 92 Calm 30.19 1022 2 3 0.00 0.00
2:53 pm 14:53 Cloudy with Mist and Fog 51 10.6 49 9.4 92 92 Calm 30.18 1022 2 3 0.00 0.00
3:00 pm 15:00 Cloudy with Mist and Fog 51 10.6 49 9.4 92 92 Calm 30.19 1022 5 8 0.00 0.00
3:09 pm 15:09 Cloudy with Light Rain 51 10.6 49 9.4 92 92 Calm 30.18 1022 2 3 0.01 0.25
3:53 pm 15:53 Cloudy with Mist and Fog 51 10.6 49 9.4 92 92 S 3 6 30.17 1022 2 3 0.01 0.25
3:58 pm 15:58 Cloudy with Mist and Fog 51 10.6 49 9.4 92 92 Calm 30.18 1022 3 5 0.00 0.00
4:10 pm 16:10 Cloudy with Mist and Fog 51 10.6 49 9.4 92 92 S 7 11 30.18 1022 2 3 0.00 0.00
4:53 pm 16:53 Cloudy with Light Rain 51 10.6 49 9.4 92 92 SW 5 7 30.16 1021 2 3 0.00 0.00
4:57 pm 16:57 Cloudy with Light Rain 51 10.6 49 9.4 92 92 SW 5 7 30.17 1022 5 8 0.01 0.25
5:05 pm 17:05 Cloudy with Light Rain 51 10.6 49 9.4 92 92 Calm 30.17 1022 4 6 0.02 0.51
5:30 pm 17:30 Cloudy with Light Rain 51 10.6 49 9.4 92 92 NW 3 6 30.17 1022 4 6 0.04 1.02
5:41 pm 17:41 Cloudy with Light Rain 50 10 49 9.4 96 96 NNW 5 7 30.17 1022 4 6 0.07 1.78
5:53 pm 17:53 Cloudy with Rain 50 10 49 9.4 96 96 NW 5 7 30.17 1022 2 3 0.09 2.29
6:00 pm 18:00 Cloudy with Rain 50 10 49 9.4 96 96 NW 5 7 30.19 1022 4 6 0.02 0.51
6:32 pm 18:32 Cloudy with Light Rain 51 10.6 49 9.4 92 92 VRB 3 6 30.20 1023 5 8 0.08 2.03
6:44 pm 18:44 Cloudy with Light Rain 51 10.6 48 8.9 89 89 Calm 30.20 1023 4 6 0.09 2.29
6:53 pm 18:53 Cloudy with Light Rain 51 10.6 49 9.4 92 92 Calm 30.19 1022 4 6 0.10 2.54
6:58 pm 18:58 Cloudy with Light Rain 51 10.6 49 9.4 92 92 Calm 30.21 1023 4 6 0.00 0.00
7:53 pm 19:53 Cloudy with Light Rain 50 10 49 9.4 96 96 ESE 7 11 30.15 1021 5 8 0.05 1.27
8:53 pm 20:53 Cloudy 51 10.6 49 9.4 92 92 S 6 9 30.17 1022 7 11 0.00 0.00
9:16 pm 21:16 Cloudy with Mist and Fog 51 10.6 49 9.4 92 92 S 7 11 30.18 1022 2 3 0.00 0.00
9:30 pm 21:30 Cloudy with Mist and Fog 51 10.6 50 10 96 96 SSW 3 6 30.19 1022 2 3 0.00 0.00
9:48 pm 21:48 Cloudy with Light Rain 52 11 48 9 88 88 S 7 11 30.18 1022 2 3 0.01 0.25
9:53 pm 21:53 Cloudy with Light Rain 51 10.6 49 9.4 92 92 S 6 9 30.16 1022 2 3 0.01 0.25
10:53 pm 22:53 Cloudy with Light Rain 51 10.6 50 10 96 96 SSW 3 6 30.17 1022 2 3 0.04 1.02
11:09 pm 23:09 Cloudy with Light Rain 51 10.6 49 9.4 92 92 SW 6 9 30.19 1022 3 4 0.02 0.51
11:19 pm 23:19 Cloudy with Light Rain 51 10.6 49 9.4 92 92 SSW 7 11 30.18 1022 3 5 0.02 0.51
11:40 pm 23:40 Cloudy with Mist and Fog 51 10.6 50 10 96 96 SSW 6 9 30.19 1022 3 4 0.03 0.76
11:53 pm 23:53 Cloudy with Mist and Fog 51 10.6 50 10 96 96 S 6 9 30.16 1021 3 5 0.04 1.02

Powered by AerisWeather